Location: Newark
(55.7167°N, 12.5667°E)
Time: 13:27:55
(UTC+00:00)

N. Korean satellite - Pass Details

Date: 12 December 2019
Orbit: 454 x 507 km, 97.2° (Epoch: 22 January)

Event Time Altitude Azimuth Distance (km) Brightness Sun altitude
Rises 05:39:48 0° 11° (N) 2,565 10.1 -14.0°
Reaches altitude 10° 05:41:55 10° 7° (N) 1,670 9.1 -13.7°
Maximum altitude 05:45:25 55° 290° (WNW) 582 6.6 -13.2°
Drops below altitude 10° 05:48:51 10° 212° (SSW) 1,627 9.1 -12.8°
Sets 05:50:53 0° 207° (SSW) 2,491 10.1 -12.5°
